DW6885 Weather Reports


Display with metric or nautical units.
time (UTC)temp
F
wind
direction
speed
MPH
gust
MPH
rain 1hr
in
rain 24hr
in
rain mn
in
humidity
%
barometer
mb
20150201083505 8 177 0.0 3.0 0.00 0.00 0.00 67 1018.6
20150201083204 8 176 1.0 4.0 0.00 0.00 0.00 67 1018.7
20150201082506 9 231 2.0 3.0 0.00 0.00 0.00 67 1018.6
20150201081604 9 171 0.0 8.0 0.00 0.00 0.00 66 1018.4
20150201081506 9 173 1.0 6.0 0.00 0.00 0.00 66 1018.3
20150201080103 9 11 2.0 6.0 0.00 0.00 0.00 65 1018.3
20150201074602 9 225 2.0 6.0 0.00 0.00 0.00 65 1018.2
20150201074506 9 276 2.0 8.0 0.00 0.00 0.00 65 1018.2
20150201073506 9 30 2.0 8.0 0.00 0.00 0.00 65 1018.1
20150201073003 8 55 1.0 6.0 0.00 0.00 0.00 65 1018.0
20150201072505 9 348 1.0 6.0 0.00 0.00 0.00 65 1018.0
20150201071507 9 57 1.0 3.0 0.00 0.00 0.00 65 1017.9
20150201071402 8 57 0.0 4.0 0.00 0.00 0.00 65 1017.8
20150201065902 8 69 2.0 4.0 0.00 0.00 0.00 63 1017.8
20150201065509 9 52 0.0 7.0 0.00 0.00 0.00 63 1017.8
20150201064507 8 277 1.0 7.0 0.00 0.00 0.00 63 1017.9
20150201064402 8 314 1.0 5.0 0.00 0.00 0.00 63 1017.9
20150201062803 8 355 1.0 9.0 0.00 0.00 0.00 60 1017.8
20150201062507 8 245 2.0 7.0 0.00 0.00 0.00 59 1017.8
20150201061506 9 29 2.0 9.0 0.00 0.00 0.00 57 1017.9
20150201061501 8 55 2.0 9.0 0.00 0.00 0.00 57 1017.9
20150201060507 9 335 2.0 7.0 0.00 0.00 0.00 56 1017.8
20150201055707 8 216 3.0 14.0 0.00 0.00 0.00 56 1017.9
20150201055511 8 7 2.0 13.0 0.00 0.00 0.00 56 1018.0
20150201054514 8 46 2.0 12.0 0.00 0.00 0.00 55 1017.9
20150201054207 8 326 2.0 11.0 0.00 0.00 0.00 54 1017.9
20150201053514 8 309 2.0 7.0 0.00 0.00 0.00 54 1017.9
20150201052707 8 315 1.0 9.0 0.00 0.00 0.00 53 1017.9
20150201052514 8 194 2.0 12.0 0.00 0.00 0.00 53 1018.0
20150201051512 8 60 2.0 12.0 0.00 0.00 0.00 54 1018.0
20150201051207 7 68 2.0 12.0 0.00 0.00 0.00 54 1018.2
20150201050511 7 19 1.0 7.0 0.00 0.00 0.00 55 1018.1
20150201045507 6 254 1.0 3.0 0.00 0.00 0.00 55 1018.1
20150201044008 6 59 1.0 9.0 0.00 0.00 0.00 57 1018.1
20150201043511 7 238 0.0 3.0 0.00 0.00 0.00 57 1018.0
20150201042409 7 340 0.0 8.0 0.00 0.00 0.00 55 1017.8
20150201041510 7 300 0.0 6.0 0.00 0.00 0.00 56 1017.7
20150201041007 7 255 1.0 6.0 0.00 0.00 0.00 55 1017.8
20150201040511 7 330 0.0 3.0 0.00 0.00 0.00 54 1017.7
20150201035511 8 338 1.0 3.0 0.00 0.00 0.00 54 1017.9
20150201035409 7 341 1.0 4.0 0.00 0.00 0.00 53 1017.8
20150201033807 8 347 1.0 6.0 0.00 0.00 0.00 53 1018.0
20150201033511 8 283 3.0 8.0 0.00 0.00 0.00 52 1018.0
20150201032307 8 349 2.0 10.0 0.00 0.00 0.00 52 1018.0
20150201030707 8 15 3.0 11.0 0.00 0.00 0.00 51 1018.1
20150201030511 9 341 3.0 12.0 0.00 0.00 0.00 52 1018.1
20150201025118 9 324 3.0 13.0 0.00 0.00 0.00 51 1018.2
20150201023618 8 333 3.0 9.0 0.00 0.00 0.00 53 1018.1
20150201023510 8 335 4.0 9.0 0.00 0.00 0.00 54 1018.1
20150201022511 9 34 2.0 7.0 0.00 0.00 0.00 53 1018.0
20150201022118 8 317 3.0 9.0 0.00 0.00 0.00 53 1018.1
20150201021510 9 310 2.0 6.0 0.00 0.00 0.00 54 1017.9
20150201020511 9 314 2.0 12.0 0.00 0.00 0.00 53 1017.9
20150201020508 9 321 1.0 12.0 0.00 0.00 0.00 53 1017.8
20150201015014 9 237 1.0 11.0 0.00 0.00 0.00 53 1017.7
20150201014510 9 265 3.0 12.0 0.00 0.00 0.00 54 1017.5
20150201013408 8 339 2.0 8.0 0.00 0.00 0.00 56 1017.2
20150201012511 9 346 2.0 7.0 0.00 0.00 0.00 56 1017.4
20150201012007 8 342 2.0 8.0 0.00 0.00 0.00 57 1017.4
20150201011510 9 277 2.0 9.0 0.00 0.00 0.00 57 1017.6
20150201010511 9 338 3.0 9.0 0.00 0.00 0.00 56 1017.7
20150201010307 9 38 2.0 12.0 0.00 0.00 0.00 56 1017.7
20150201005511 9 351 3.0 8.0 0.00 0.00 0.00 55 1017.5
20150201004809 9 322 3.0 9.0 0.00 0.00 0.00 55 1017.7
20150201004511 10 344 4.0 8.0 0.00 0.00 0.00 55 1017.9
20150201003207 9 351 4.0 9.0 0.00 0.00 0.00 55 1017.9
20150201002510 10 328 2.0 8.0 0.00 0.00 0.00 55 1017.7
20150201001807 10 270 2.0 11.0 0.00 0.00 0.00 56 1017.7
20150201001510 10 285 3.0 12.0 0.00 0.00 0.00 55 1017.6
20150201000510 10 8 3.0 9.0 0.00 0.00 0.00 55 1017.3
20150201000115 10 217 2.0 7.0 0.00 0.00 0.00 55 1017.3
20150131234614 10 281 1.0 7.0 0.00 0.00 0.00 55 1017.4
20150131233009 11 355 2.0 9.0 0.00 0.00 0.00 54 1017.4
20150131231506 0 0.0 0.0 0.00 0.00 0.00 1017.4
20150131230510 12 14 0.0 3.0 0.00 0.00 0.00 53 1017.1
20150131230113 11 238 3.0 14.0 0.00 0.00 0.00 53 1016.9
20150131225511 12 238 3.0 14.0 0.00 0.00 0.00 53 1016.8
20150131224511 12 323 6.0 14.0 0.00 0.00 0.00 53 1016.6
20150131224407 11 299 6.0 17.0 0.00 0.00 0.00 53 1016.4
20150131222807 11 227 3.0 9.0 0.00 0.00 0.00 52 1016.6
20150131221510 12 327 5.0 12.0 0.00 0.00 0.00 52 1016.2
20150131221308 11 199 3.0 13.0 0.00 0.00 0.00 51 1016.2
20150131220510 12 121 5.0 12.0 0.00 0.00 0.00 51 1016.0
20150131215707 12 103 4.0 15.0 0.00 0.00 0.00 50 1015.6
20150131215511 12 351 3.0 14.0 0.00 0.00 0.00 50 1015.7
20150131214511 12 1 5.0 13.0 0.00 0.00 0.00 50 1015.8
20150131214207 12 322 3.0 14.0 0.00 0.00 0.00 50 1015.8
20150131213511 13 357 6.0 12.0 0.00 0.00 0.00 49 1015.5
20150131212612 0 0.0 0.0 0.00 0.00 0.00 1015.6
20150131212510 15 0 0.0 0.0 0.00 0.00 0.00 42 1015.5
20150131211115 0 0.0 0.0 0.00 0.00 0.00 1015.2
20150131210511 15 0 0.0 0.0 0.00 0.00 0.00 42 1015.2
20150131205511 15 0 0.0 0.0 0.00 0.00 0.00 42 1015.0
20150131205508 0 0.0 0.0 0.00 0.00 0.00 1015.0
20150131204511 15 0 0.0 0.0 0.00 0.00 0.00 42 1014.7
20150131204015 0 0.0 0.0 0.00 0.00 0.00 1014.8
20150131202510 15 0 0.0 0.0 0.00 0.00 0.00 42 1014.5
20150131202506 0 0.0 0.0 0.00 0.00 0.00 1014.5
20150131201510 15 0 0.0 0.0 0.00 0.00 0.00 42 1014.2
20150131200908 0 0.0 0.0 0.00 0.00 0.00 1014.1
20150131200511 15 0 0.0 0.0 0.00 0.00 0.00 42 1014.2
20150131195408 0 0.0 0.0 0.00 0.00 0.00 1014.2
20150131193807 0 0.0 0.0 0.00 0.00 0.00 1013.9
20150131192510 15 0 0.0 0.0 0.00 0.00 0.00 42 1013.7
20150131191511 15 0 0.0 0.0 0.00 0.00 0.00 42 1013.5
20150131190806 0 0.0 0.0 0.00 0.00 0.00 1013.4
20150131190511 15 0 0.0 0.0 0.00 0.00 0.00 42 1013.5
20150131185116 0 0.0 0.0 0.00 0.00 0.00 1013.6
20150131183614 0 0.0 0.0 0.00 0.00 0.00 1013.5
20150131182511 15 3 1.0 3.0 0.00 0.00 0.00 42 1013.7
20150131182115 14 71 3.0 13.0 0.00 0.00 0.00 42 1013.7
20150131180511 15 298 5.0 10.0 0.00 0.00 0.00 42 1013.7
20150131180508 14 30 4.0 13.0 0.00 0.00 0.00 42 1013.6
20150131175511 15 290 3.0 12.0 0.00 0.00 0.00 43 1013.8
20150131175306 14 360 4.0 15.0 0.00 0.00 0.00 43 1013.7
20150131174511 14 331 4.0 16.0 0.00 0.00 0.00 44 1013.8
20150131173510 14 334 2.0 13.0 0.00 0.00 0.00 46 1013.8
20150131173409 13 235 2.0 15.0 0.00 0.00 0.00 45 1013.7
20150131172510 13 291 7.0 13.0 0.00 0.00 0.00 45 1013.8
20150131171908 13 76 4.0 12.0 0.00 0.00 0.00 46 1013.9
20150131170511 12 334 1.0 8.0 0.00 0.00 0.00 48 1013.8
20150131170307 0 0.0 0.0 0.00 0.00 0.00 1013.7
20150131164907 0 0.0 0.0 0.00 0.00 0.00 1014.0
20150131164512 12 329 2.0 12.0 0.00 0.00 0.00 48 1014.0
20150131163510 12 351 5.0 12.0 0.00 0.00 0.00 49 1014.1
20150131163207 12 78 5.0 13.0 0.00 0.00 0.00 49 1014.1
20150131162511 12 338 5.0 8.0 0.00 0.00 0.00 48 1014.1
20150131161618 0 0.0 0.0 0.00 0.00 0.00 1014.2
20150131160510 11 353 3.0 6.0 0.00 0.00 0.00 52 1014.1
20150131160315 10 331 3.0 12.0 0.00 0.00 0.00 52 1014.1
20150131154707 10 321 4.0 16.0 0.00 0.00 0.00 51 1014.2
20150131153007 10 309 3.0 14.0 0.00 0.00 0.00 53 1014.1
20150131151511 9 356 5.0 12.0 0.00 0.00 0.00 55 1013.9
20150131151507 9 34 4.0 14.0 0.00 0.00 0.00 54 1013.9
20150131150007 8 9 3.0 12.0 0.00 0.00 0.00 58 1013.9
20150131145511 8 339 3.0 12.0 0.00 0.00 0.00 57 1013.9
20150131144511 7 47 3.0 8.0 0.00 0.00 0.00 60 1013.8
20150131144507 7 20 2.0 8.0 0.00 0.00 0.00 60 1013.8
20150131142807 6 277 5.0 16.0 0.00 0.00 0.00 62 1013.7
20150131142510 6 6 3.0 12.0 0.00 0.00 0.00 62 1013.7
20150131141511 6 314 5.0 12.0 0.00 0.00 0.00 63 1013.5
20150131141307 5 360 4.0 11.0 0.00 0.00 0.00 64 1013.5
20150131140510 5 354 3.0 9.0 0.00 0.00 0.00 64 1013.5
20150131135707 5 355 3.0 9.0 0.00 0.00 0.00 67 1013.5
20150131134206 4 5 0.0 5.0 0.00 0.00 0.00 69 1013.5
20150131133512 3 326 2.0 5.0 0.00 0.00 0.00 70 1013.5
20150131132706 3 94 0.0 2.0 0.00 0.00 0.00 71 1013.6
20150131131206 3 161 0.0 7.0 0.00 0.00 0.00 71 1013.5
20150131130510 3 277 3.0 7.0 0.00 0.00 0.00 71 1013.5
20150131125706 3 346 0.0 6.0 0.00 0.00 0.00 72 1013.6
20150131125510 3 129 0.0 6.0 0.00 0.00 0.00 71 1013.6
20150131124510 3 299 1.0 6.0 0.00 0.00 0.00 72 1013.5
20150131124009 3 329 1.0 6.0 0.00 0.00 0.00 72 1013.5
20150131123510 3 15 2.0 8.0 0.00 0.00 0.00 72 1013.6
20150131122511 3 47 3.0 8.0 0.00 0.00 0.00 73 1013.4
20150131122507 3 74 2.0 11.0 0.00 0.00 0.00 73 1013.4
20150131121510 3 358 3.0 9.0 0.00 0.00 0.00 72 1013.3
20150131121008 3 333 3.0 8.0 0.00 0.00 0.00 73 1013.2
20150131120511 4 2 2.0 9.0 0.00 0.00 0.00 73 1013.1
20150131115511 4 350 5.0 9.0 0.00 0.00 0.00 73 1013.0
20150131115507 4 35 3.0 10.0 0.00 0.00 0.00 73 1013.1
20150131114510 4 57 3.0 9.0 0.00 0.00 0.00 74 1012.9
20150131113808 4 309 2.0 9.0 0.00 0.00 0.00 74 1012.8
20150131113511 4 316 3.0 9.0 0.00 0.00 0.00 75 1012.7
20150131112511 4 51 3.0 13.0 0.00 0.00 0.00 75 1012.6
20150131112308 4 315 3.0 13.0 0.00 0.00 0.00 75 1012.6
20150131110706 3 321 2.0 7.0 0.00 0.00 0.00 76 1012.6
20150131110510 4 330 2.0 12.0 0.00 0.00 0.00 76 1012.6
20150131105510 4 308 3.0 9.0 0.00 0.00 0.00 76 1012.5
20150131105206 4 355 2.0 9.0 0.00 0.00 0.00 76 1012.5
20150131103707 4 90 1.0 12.0 0.00 0.00 0.00 76 1012.4
20150131103511 4 5 5.0 10.0 0.00 0.00 0.00 76 1012.5
20150131102207 4 15 1.0 8.0 0.00 0.00 0.00 77 1012.3
20150131101511 5 303 8.0 8.0 0.00 0.00 0.00 77 1012.0
20150131100512 5 13 2.0 5.0 0.00 0.00 0.00 76 1011.9
20150131100510 5 65 2.0 6.0 0.00 0.00 0.00 76 1011.9
20150131095006 5 207 1.0 9.0 0.00 0.00 0.00 77 1011.6
20150131094511 5 339 2.0 5.0 0.00 0.00 0.00 77 1011.6
20150131093408 5 326 2.0 8.0 0.00 0.00 0.00 77 1011.3
20150131092510 6 342 2.0 8.0 0.00 0.00 0.00 78 1011.1
20150131091907 5 355 2.0 8.0 0.00 0.00 0.00 78 1011.1
20150131091510 6 288 2.0 7.0 0.00 0.00 0.00 78 1011.0
20150131090511 6 19 2.0 10.0 0.00 0.00 0.00 78 1010.8
20150131090407 5 20 2.0 10.0 0.00 0.00 0.00 78 1010.8
20150131085510 6 340 2.0 7.0 0.00 0.00 0.00 79 1010.7
20150131084807 5 344 1.0 10.0 0.00 0.00 0.00 79 1010.6
20150131084511 6 339 2.0 8.0 0.00 0.00 0.00 79 1010.6